• In Lithuania
  • List of Countries
  • For 7 days
  • Water Temperature
  • Satellite Maps
  • Weather Map
  • Weather Widgets
  • user-avatar
    Login

    Hourly Weather Kalgoorlie

    Today, 21 July, Friday

    Time Temperature Precipitation Wind Pressure Humidity
    00:00 +12°C° 0 mm 5 mps 728 mmHg 67%
    01:00 +12°C° 0 mm 5 mps 728 mmHg 71%
    02:00 +11°C° 0 mm 4 mps 728 mmHg 74%
    03:00 +11°C° 0 mm 4 mps 728 mmHg 78%
    04:00 +10°C° 0 mm 4 mps 728 mmHg 82%
    05:00 +10°C° 0 mm 4 mps 728 mmHg 85%
    06:00 +10°C° 0 mm 4 mps 729 mmHg 85%
    07:00 +10°C° 0 mm 4 mps 729 mmHg 85%
    08:00 +12°C° 0 mm 5 mps 729 mmHg 80%
    09:00 +13°C° 0 mm 5 mps 729 mmHg 72%
    10:00 +15°C° 0 mm 6 mps 729 mmHg 64%
    11:00 +16°C° 0 mm 6 mps 729 mmHg 55%
    12:00 +17°C° 0 mm 6 mps 729 mmHg 53%
    13:00 +17°C° 0 mm 7 mps 729 mmHg 52%
    14:00 +17°C° 0 mm 7 mps 728 mmHg 50%
    15:00 +17°C° 0 mm 7 mps 729 mmHg 51%
    16:00 +16°C° 0 mm 7 mps 729 mmHg 52%
    17:00 +16°C° 0 mm 7 mps 729 mmHg 52%
    18:00 +15°C° 0 mm 6 mps 729 mmHg 54%
    19:00 +15°C° 0 mm 6 mps 730 mmHg 56%
    20:00 +14°C° 0 mm 5 mps 730 mmHg 58%
    21:00 +13°C° 0 mm 5 mps 730 mmHg 61%
    22:00 +13°C° 0 mm 5 mps 730 mmHg 63%
    23:00 +12°C° 0 mm 5 mps 730 mmHg 66%

    Tomorrow, 22 July, Saturday

    Time Temperature Precipitation Wind Pressure Humidity
    00:00 +12°C° 0 mm 5 mps 730 mmHg 70%
    01:00 +10°C° 0 mm 5 mps 730 mmHg 74%
    02:00 +11°C° 0 mm 4 mps 730 mmHg 78%
    03:00 +10°C° 0 mm 4 mps 730 mmHg 81%
    04:00 +10°C° 0 mm 4 mps 730 mmHg 84%
    05:00 +8°C° 0 mm 4 mps 731 mmHg 87%
    06:00 +10°C° 0 mm 4 mps 731 mmHg 85%
    07:00 +9°C° 0 mm 5 mps 731 mmHg 83%
    08:00 +9°C° 0 mm 5 mps 731 mmHg 81%
    09:00 +12°C° 0 mm 5 mps 732 mmHg 74%
    10:00 +14°C° 0 mm 5 mps 732 mmHg 67%
    11:00 +16°C° 0 mm 6 mps 732 mmHg 59%
    12:00 +16°C° 0 mm 6 mps 731 mmHg 58%
    13:00 +16°C° 0 mm 5 mps 731 mmHg 57%
    14:00 +17°C° 0 mm 5 mps 730 mmHg 56%
    15:00 +16°C° 0.1 mm 5 mps 730 mmHg 58%
    16:00 +16°C° 0.1 mm 5 mps 731 mmHg 60%
    17:00 +15°C° 0.1 mm 4 mps 731 mmHg 61%
    18:00 +15°C° 0 mm 4 mps 731 mmHg 65%
    19:00 +14°C° 0 mm 3 mps 731 mmHg 68%
    20:00 +13°C° 0 mm 3 mps 732 mmHg 72%
    21:00 +13°C° 0 mm 3 mps 732 mmHg 75%
    22:00 +13°C° 0 mm 2 mps 732 mmHg 78%
    23:00 +12°C° 0 mm 2 mps 732 mmHg 81%

    Day after tomorrow, 23 July, Sunday

    Time Temperature Precipitation Wind Pressure Humidity
    00:00 +12°C° 0 mm 2 mps 732 mmHg 83%
    01:00 +10°C° 0 mm 2 mps 732 mmHg 85%
    02:00 +10°C° 0 mm 2 mps 732 mmHg 87%
    03:00 +10°C° 0 mm 2 mps 732 mmHg 88%
    04:00 +11°C° 0 mm 1 mps 732 mmHg 88%
    05:00 +10°C° 0 mm 1 mps 732 mmHg 88%
    06:00 +10°C° 0 mm 2 mps 732 mmHg 86%
    07:00 +10°C° 0 mm 2 mps 732 mmHg 83%
    08:00 +12°C° 0 mm 2 mps 733 mmHg 81%
    09:00 +12°C° 0 mm 3 mps 733 mmHg 73%
    10:00 +14°C° 0 mm 3 mps 732 mmHg 66%
    11:00 +17°C° 0 mm 4 mps 732 mmHg 58%
    12:00 +16°C° 0 mm 5 mps 732 mmHg 56%
    13:00 +16°C° 0 mm 5 mps 731 mmHg 53%
    14:00 +17°C° 0 mm 6 mps 730 mmHg 51%
    15:00 +16°C° 0 mm 5 mps 730 mmHg 51%
    16:00 +16°C° 0 mm 5 mps 730 mmHg 50%
    17:00 +17°C° 0 mm 4 mps 730 mmHg 50%
    18:00 +15°C° 0 mm 4 mps 730 mmHg 52%
    19:00 +14°C° 0 mm 4 mps 731 mmHg 54%
    20:00 +13°C° 0 mm 3 mps 731 mmHg 57%
    21:00 +13°C° 0 mm 3 mps 731 mmHg 57%
    22:00 +12°C° 0 mm 3 mps 731 mmHg 57%
    23:00 +12°C° 0 mm 3 mps 731 mmHg 58%

    24 July, Monday

    Time Temperature Precipitation Wind Pressure Humidity
    00:00 +11°C° 0 mm 3 mps 731 mmHg 61%
    01:00 +11°C° 0 mm 3 mps 731 mmHg 63%
    02:00 +10°C° 0 mm 3 mps 731 mmHg 66%
    03:00 +10°C° 0 mm 3 mps 731 mmHg 72%
    04:00 +10°C° 0 mm 3 mps 731 mmHg 77%
    05:00 +9°C° 0 mm 3 mps 731 mmHg 83%
    06:00 +10°C° 0 mm 3 mps 731 mmHg 83%
    07:00 +10°C° 0 mm 3 mps 732 mmHg 83%
    08:00 +10°C° 0 mm 3 mps 732 mmHg 82%
    09:00 +12°C° 0 mm 4 mps 732 mmHg 75%
    10:00 +14°C° 0 mm 4 mps 732 mmHg 68%
    11:00 +15°C° 0 mm 4 mps 732 mmHg 61%
    12:00 +17°C° 0 mm 4 mps 732 mmHg 59%
    13:00 +17°C° 0 mm 4 mps 731 mmHg 56%
    14:00 +17°C° 0 mm 4 mps 731 mmHg 54%
    15:00 +17°C° 0 mm 4 mps 731 mmHg 56%
    16:00 +17°C° 0 mm 4 mps 731 mmHg 57%
    17:00 +15°C° 0 mm 4 mps 731 mmHg 59%
    18:00 +16°C° 0 mm 3 mps 732 mmHg 60%
    19:00 +14°C° 0 mm 3 mps 732 mmHg 62%
    20:00 +13°C° 0 mm 3 mps 733 mmHg 64%
    21:00 +13°C° 0 mm 3 mps 733 mmHg 65%
    22:00 +12°C° 0 mm 3 mps 733 mmHg 65%
    23:00 +12°C° 0 mm 2 mps 733 mmHg 66%

    25 July, Tuesday

    Time Temperature Precipitation Wind Pressure Humidity
    00:00 +12°C° 0 mm 2 mps 733 mmHg 67%
    01:00 +10°C° 0 mm 2 mps 733 mmHg 68%
    02:00 +10°C° 0 mm 2 mps 733 mmHg 69%
    03:00 +10°C° 0 mm 2 mps 733 mmHg 71%
    04:00 +9°C° 0 mm 2 mps 733 mmHg 73%
    05:00 +9°C° 0 mm 2 mps 733 mmHg 75%
    06:00 +9°C° 0 mm 2 mps 734 mmHg 75%
    07:00 +10°C° 0 mm 2 mps 734 mmHg 75%
    08:00 +10°C° 0 mm 2 mps 735 mmHg 74%
    09:00 +12°C° 0 mm 2 mps 735 mmHg 67%
    10:00 +14°C° 0 mm 1 mps 735 mmHg 60%
    11:00 +16°C° 0 mm 1 mps 735 mmHg 53%
    12:00 +16°C° 0 mm 1 mps 734 mmHg 49%
    13:00 +16°C° 0 mm 0 mps 734 mmHg 44%
    14:00 +17°C° 0 mm 0 mps 733 mmHg 39%
    15:00 +17°C° 0 mm 0 mps 733 mmHg 41%
    16:00 +16°C° 0 mm 0 mps 733 mmHg 43%
    17:00 +18°C° 0 mm 1 mps 734 mmHg 45%
    18:00 +16°C° 0 mm 1 mps 734 mmHg 46%
    19:00 +15°C° 0 mm 2 mps 734 mmHg 47%
    20:00 +15°C° 0 mm 2 mps 735 mmHg 48%
    21:00 +14°C° 0 mm 2 mps 735 mmHg 49%
    22:00 +14°C° 0 mm 2 mps 735 mmHg 51%
    23:00 +12°C° 0 mm 3 mps 735 mmHg 53%

    26 July, Wednesday

    Time Temperature Precipitation Wind Pressure Humidity
    00:00 +12°C° 0 mm 3 mps 734 mmHg 53%
    01:00 +12°C° 0 mm 3 mps 734 mmHg 54%
    02:00 +11°C° 0 mm 3 mps 734 mmHg 55%
    03:00 +11°C° 0 mm 3 mps 734 mmHg 55%
    04:00 +11°C° 0 mm 4 mps 734 mmHg 55%
    05:00 +11°C° 0 mm 4 mps 734 mmHg 55%
    06:00 +11°C° 0 mm 4 mps 734 mmHg 54%
    07:00 +11°C° 0 mm 4 mps 734 mmHg 53%
    08:00 +12°C° 0 mm 5 mps 735 mmHg 52%
    09:00 +14°C° 0 mm 5 mps 735 mmHg 47%
    10:00 +16°C° 0 mm 6 mps 734 mmHg 43%
    11:00 +20°C° 0 mm 6 mps 734 mmHg 38%
    12:00 +21°C° 0 mm 6 mps 734 mmHg 36%
    13:00 +22°C° 0 mm 5 mps 733 mmHg 34%
    14:00 +23°C° 0 mm 5 mps 732 mmHg 32%
    15:00 +22°C° 0 mm 4 mps 732 mmHg 35%
    16:00 +21°C° 0 mm 3 mps 732 mmHg 37%
    17:00 +21°C° 0 mm 2 mps 732 mmHg 40%
    18:00 +21°C° 0 mm 1 mps 732 mmHg 42%
    19:00 +20°C° 0 mm 1 mps 733 mmHg 44%
    20:00 +19°C° 0 mm 1 mps 733 mmHg 46%
    21:00 +17°C° 0 mm 2 mps 733 mmHg 47%
    22:00 +17°C° 0 mm 2 mps 733 mmHg 48%
    23:00 +17°C° 0 mm 2 mps 733 mmHg 49%
    Show more